[[{"header":{"parameterUnit":"m.s-1","parameterCategory":1,"la1":30.2991,"la2":30.254,"lo1":-89.0895,"lo2":-89.0444,"dy":0.0017,"dx":0.0017,"nx":28,"ny":28,"refTime":"2025-04-28T03:00:00:Z","depth":0,"parameterNumber":2,"parameterNumberName":"U-component_of_WINDS"},"data":[0,0,0,0,0,0,0,0,0,0,0,0,0,0,0,0,0,0,0,0,0,0,0,0,0,0,0,0,0,0,0,0,0,0,0,0,0,0,0,0,0,0,0,0,0,0,0,0,0,0,0,0,0,0,0,0,0,0,1.7371,1.7371,0,1.7382,1.7382,1.7382,1.7367,1.7366,1.7366,1.7365,1.7375,1.7375,1.7376,0,0,0,0,0,0,0,0,0,0,0,0,0,1.7334,1.7334,1.7371,1.7371,1.7371,1.7382,1.7382,1.7382,1.7367,1.7366,1.7366,1.7365,1.7375,1.7375,1.7376,0,0,0,0,0,0,0,0,0,0,0,0,0,1.7348,1.7335,1.7371,1.7365,1.7364,1.7382,1.7382,1.7382,1.7367,1.7366,1.7365,1.7365,1.7374,1.7375,1.7376,1.7399,0,0,1.738,1.738,0,0,0,0,0,0,0,0,1.7347,1.7349,1.7365,1.7365,1.7365,1.7372,1.7372,1.7388,1.7367,1.7366,1.7365,1.7364,1.7374,1.7375,1.7379,1.74,1.74,1.738,1.7381,1.7381,1.7381,0,0,0,0,0,0,0,1.7346,1.7348,1.7375,1.7366,1.7365,1.7361,1.7362,1.7375,1.7374,1.7366,1.7365,1.7367,1.7374,1.7378,1.7379,1.74,1.738,1.7381,1.7382,1.7382,1.7438,1.7439,0,0,0,0,0,0,1.7346,1.7348,1.7375,1.7375,1.7354,1.7362,1.7363,1.737,1.7374,1.7374,1.7367,1.7366,1.7377,1.7378,1.738,1.7405,1.7381,1.7382,1.7383,1.7438,1.7439,1.744,0,0,0,0,0,0,1.7345,1.7349,1.7374,1.7361,1.7364,1.7363,1.7372,1.7371,1.7375,1.7375,1.7375,1.7372,1.7376,1.7378,1.7394,1.7405,1.7383,1.7384,1.7437,1.7438,1.7439,1.7457,0,0,0,0,0,0,1.7344,1.7348,1.7358,1.7362,1.7365,1.7389,1.7373,1.7372,1.7377,1.7376,1.7379,1.7379,1.7376,1.7393,1.7395,1.7406,1.7385,1.7436,1.7437,1.7439,1.7456,1.7459,1.7462,0,0,0,0,0,1.7343,1.7362,1.7358,1.7362,1.7377,1.739,1.7392,1.7388,1.7379,1.7387,1.7387,1.7379,1.7404,1.7395,1.7397,1.7409,1.7435,1.7437,1.7439,1.7454,1.7458,1.7462,0,0,0,0,0,0,1.736,1.7363,1.7358,1.738,1.7385,1.7388,1.7398,1.7393,1.74,1.7398,1.7392,1.7393,1.741,1.7411,1.7401,1.743,1.7418,1.742,1.7429,1.7433,1.7436,1.7434,1.7386,0,0,0,0,0,1.7366,1.7377,1.7379,1.7398,1.7401,1.7399,1.7405,1.7401,1.7406,1.7408,1.7409,1.7413,1.7422,1.7428,1.7436,1.7456,1.7456,1.7466,1.7469,1.7471,1.7473,1.7482,1.7486,1.7446,1.7446,1.7446,0,0,1.7379,1.7382,1.7389,1.7401,1.7405,1.7415,1.7401,1.7413,1.7421,1.741,1.7424,1.7426,1.743,1.7448,1.7456,1.745,1.7484,1.7474,1.7476,1.7476,1.7484,1.7488,1.7492,1.7447,1.7447,1.7446,0,0,1.7407,1.7411,1.7426,1.743,1.7436,1.7434,1.7438,1.7442,1.7442,1.7457,1.7448,1.7457,1.7473,1.7475,1.7479,1.7507,1.75,1.751,1.7526,1.7535,1.7538,1.7541,1.7549,1.7552,1.7512,1.7512,1.7513,0,1.7421,1.7438,1.7435,1.7447,1.7452,1.7443,1.7457,1.7461,1.7469,1.7472,1.7465,1.7483,1.7485,1.7503,1.751,1.7514,1.7516,1.7509,1.7538,1.7541,1.7543,1.7551,1.7554,1.7514,1.7513,1.7513,1.7513,0,1.7455,1.7466,1.7478,1.7485,1.7491,1.7505,1.7503,1.7509,1.7505,1.7505,1.7519,1.7522,1.753,1.7534,1.753,1.7551,1.7546,1.7539,1.7526,1.7548,1.7555,1.7558,1.7515,1.7515,1.7514,1.7514,0,0,1.7493,1.7498,1.7502,1.7505,1.751,1.7518,1.7531,1.7539,1.7544,1.755,1.7559,1.7572,1.7564,1.7568,1.7565,1.7573,1.7593,1.7564,1.7564,1.7568,1.7614,1.7618,1.7622,1.7589,1.759,1.759,1.7613,0,1.7519,1.7541,1.7538,1.7559,1.7568,1.756,1.757,1.7574,1.7574,1.7581,1.7581,1.7589,1.758,1.7582,1.759,1.7589,1.7602,1.7588,1.7596,1.7596,1.7593,1.7626,1.7631,1.7652,1.7616,1.7616,1.7617,0,1.7553,1.7559,1.7581,1.7583,1.7587,1.7597,1.7603,1.7611,1.7615,1.7614,1.7618,1.7613,1.7624,1.7612,1.7627,1.7617,1.762,1.7621,1.7621,1.762,1.7606,1.7624,1.7659,1.7661,1.7622,1.7621,1.7621,0,1.7575,1.759,1.7604,1.7607,1.7611,1.7617,1.7619,1.7623,1.7627,1.7633,1.7635,1.7642,1.7645,1.765,1.7647,1.7639,1.7661,1.7649,1.7659,1.7659,1.7663,1.7662,1.7697,1.7668,1.7668,1.7668,1.7668,0,1.7604,1.7617,1.7614,1.7623,1.7636,1.7633,1.7646,1.7647,1.765,1.7658,1.7652,1.7659,1.7655,1.7661,1.7659,1.767,1.7672,1.7671,1.767,1.767,1.767,1.7671,1.7669,1.7669,1.7669,1.7669,1.7669,0,1.763,1.763,1.7644,1.7647,1.7648,1.7658,1.7659,1.7667,1.7666,1.7676,1.7678,1.7677,1.7684,1.7682,1.769,1.7688,1.7702,1.77,1.7701,1.77,1.7709,1.7708,1.7744,1.7748,1.7718,1.7719,1.7719,0,1.7648,1.7657,1.7661,1.7666,1.7668,1.7676,1.7681,1.7678,1.7683,1.7687,1.7694,1.7701,1.7706,1.7719,1.7718,1.7724,1.772,1.7733,1.7721,1.7721,1.7718,1.7717,1.7717,1.7734,1.7735,1.7735,1.7735,0,1.7677,1.7676,1.7683,1.769,1.7696,1.7701,1.7705,1.771,1.7707,1.7712,1.772,1.7724,1.7732,1.7739,1.7744,1.7745,1.7739,1.7739,1.7742,1.7741,1.7741,1.7739,1.7705,1.7738,1.7738,1.7738,1.7737,1.7737,1.7699,1.7706,1.7709,1.7717,1.772,1.7724,1.7731,1.7731,1.7738,1.7744,1.7742,1.7751,1.7754,1.776,1.7762,1.7768,1.7763,1.7767,1.7767,1.7768,1.7768,1.7741,1.7769,1.7769,1.7769,1.7769,1.7769,0,1.7726,1.7728,1.7735,1.7742,1.7747,1.7742,1.7747,1.7752,1.7759,1.7763,1.7768,1.7776,1.7783,1.7783,1.7788,1.7793,1.779,1.7794,1.7793,1.7793,1.7773,1.777,1.7796,1.7796,1.7796,1.7796,1.7796,1.7796,1.7741,1.7753,1.7752,1.7766,1.7767,1.7776,1.7778,1.7782,1.7784,1.7794,1.7799,1.7799,1.7801,1.7807,1.7812,1.7812,1.7813,1.7818,1.7817,1.7798,1.7795,1.7792,1.7789,1.7819,1.7819,1.7836,1.7836,1.7836]},{"header":{"parameterUnit":"m.s-1","parameterCategory":1,"la1":30.2991,"la2":30.254,"lo1":-89.0895,"lo2":-89.0444,"dy":0.0017,"dx":0.0017,"nx":28,"ny":28,"refTime":"2025-04-28T03:00:00:Z","depth":0,"parameterNumber":3,"parameterNumberName":"V-component_of_WINDS"},"data":[0,0,0,0,0,0,0,0,0,0,0,0,0,0,0,0,0,0,0,0,0,0,0,0,0,0,0,0,0,0,0,0,0,0,0,0,0,0,0,0,0,0,0,0,0,0,0,0,0,0,0,0,0,0,0,0,0,0,1.08,1.0802,0,1.0922,1.0923,1.0925,1.0946,1.0945,1.0944,1.0943,1.1069,1.1073,1.1078,0,0,0,0,0,0,0,0,0,0,0,0,0,1.0586,1.059,1.08,1.0802,1.0803,1.0922,1.0923,1.0925,1.0946,1.0945,1.0943,1.0942,1.1068,1.1073,1.1078,0,0,0,0,0,0,0,0,0,0,0,0,0,1.0691,1.0591,1.08,1.0828,1.0832,1.0921,1.0924,1.0926,1.0946,1.0945,1.0943,1.0942,1.1066,1.1072,1.1079,1.115,0,0,1.1099,1.1102,0,0,0,0,0,0,0,0,1.0685,1.0699,1.0822,1.0826,1.083,1.0917,1.0895,1.1001,1.0947,1.0903,1.0943,1.0941,1.102,1.103,1.1057,1.1156,1.1161,1.1099,1.1103,1.1106,1.1108,0,0,0,0,0,0,0,1.0678,1.0694,1.0848,1.0824,1.0829,1.0834,1.0848,1.0915,1.0969,1.0906,1.0908,1.0922,1.1022,1.105,1.106,1.1163,1.1099,1.1105,1.1109,1.1111,1.1326,1.1328,0,0,0,0,0,0,1.0665,1.0687,1.0845,1.0852,1.0752,1.084,1.0854,1.0891,1.0968,1.0978,1.0923,1.0923,1.104,1.1052,1.1064,1.1152,1.1106,1.1112,1.1116,1.1324,1.1326,1.1328,0,0,0,0,0,0,1.0661,1.0679,1.084,1.077,1.0791,1.0845,1.0886,1.0894,1.0922,1.0981,1.0991,1.0942,1.1039,1.1055,1.1128,1.1157,1.1115,1.1121,1.1322,1.1325,1.1327,1.1329,0,0,0,0,0,0,1.0654,1.0677,1.0705,1.0771,1.0795,1.0902,1.0888,1.0898,1.0933,1.0934,1.1001,1.1011,1.1039,1.1118,1.1135,1.1165,1.1126,1.132,1.1323,1.1326,1.1326,1.1331,1.1335,0,0,0,0,0,1.0647,1.0701,1.0706,1.0725,1.083,1.0903,1.0917,1.0948,1.0935,1.0964,1.1001,1.1009,1.1151,1.1126,1.1144,1.1177,1.1318,1.1322,1.1326,1.1324,1.133,1.1335,0,0,0,0,0,0,1.0639,1.071,1.0717,1.0794,1.0842,1.0906,1.0943,1.0953,1.1006,1.1004,1.1041,1.1056,1.1127,1.1159,1.113,1.1249,1.1233,1.1241,1.1226,1.1232,1.1236,1.1227,1.1131,0,0,0,0,0,1.0646,1.0698,1.0758,1.0821,1.0844,1.0889,1.0922,1.0942,1.0993,1.1014,1.1057,1.1107,1.1163,1.1199,1.1253,1.133,1.1345,1.1362,1.1366,1.1369,1.1376,1.1418,1.1426,1.1341,1.1341,1.1341,0,0,1.0661,1.0707,1.0738,1.082,1.086,1.0914,1.0907,1.0964,1.1005,1.1023,1.1094,1.1127,1.1185,1.126,1.1296,1.129,1.1403,1.1375,1.1377,1.1382,1.1423,1.1431,1.1438,1.1344,1.1344,1.1343,0,0,1.0717,1.0757,1.0813,1.0852,1.0911,1.0941,1.0954,1.1016,1.1039,1.111,1.1125,1.1173,1.1269,1.1309,1.1343,1.1411,1.142,1.1428,1.1451,1.1492,1.1498,1.1505,1.1529,1.1537,1.1434,1.1434,1.1434,0,1.073,1.0811,1.0841,1.0897,1.0933,1.095,1.1007,1.1044,1.1118,1.1142,1.1134,1.1253,1.1294,1.1378,1.1394,1.142,1.1437,1.1421,1.1495,1.1501,1.1508,1.1531,1.154,1.1435,1.1435,1.1434,1.1434,0,1.0823,1.0879,1.0917,1.0987,1.1026,1.1083,1.1121,1.1157,1.1172,1.1202,1.1275,1.1324,1.1388,1.1409,1.1425,1.1495,1.1489,1.1487,1.1473,1.1516,1.1538,1.1548,1.1435,1.1435,1.1435,1.1435,0,0,1.0879,1.0963,1.0977,1.1008,1.1074,1.1118,1.1174,1.1236,1.1266,1.1316,1.1365,1.1444,1.1442,1.1479,1.15,1.1535,1.1586,1.1529,1.1531,1.1538,1.1666,1.1667,1.1677,1.1591,1.1593,1.1595,1.1661,0,1.0943,1.1044,1.1072,1.1157,1.1209,1.1225,1.1274,1.132,1.1349,1.1397,1.1429,1.1484,1.1478,1.15,1.1536,1.1572,1.1612,1.1568,1.1637,1.1639,1.1623,1.1689,1.1691,1.1751,1.167,1.1671,1.1672,0,1.1032,1.1082,1.1172,1.123,1.1252,1.1296,1.1354,1.14,1.1451,1.147,1.151,1.1527,1.1586,1.1567,1.1649,1.1618,1.1648,1.167,1.1673,1.1681,1.1659,1.1699,1.1771,1.178,1.1687,1.1686,1.1685,0,1.1064,1.1154,1.1219,1.1246,1.1314,1.1345,1.1375,1.1424,1.1459,1.151,1.1533,1.159,1.1621,1.1665,1.1696,1.1679,1.1775,1.1759,1.1793,1.1792,1.1813,1.1812,1.1891,1.1831,1.1831,1.1831,1.1831,0,1.1132,1.1187,1.1234,1.1275,1.1336,1.1367,1.1427,1.1458,1.1501,1.1548,1.1565,1.1609,1.1647,1.1696,1.172,1.1784,1.1798,1.1815,1.1821,1.1814,1.1812,1.1835,1.1831,1.1833,1.1833,1.1832,1.1832,0,1.1179,1.1213,1.1286,1.1343,1.1359,1.1402,1.1452,1.1492,1.152,1.1579,1.1594,1.1639,1.1697,1.1732,1.1806,1.1822,1.1892,1.1897,1.1875,1.1878,1.1909,1.1906,1.2007,1.2021,1.1951,1.1952,1.1953,0,1.1221,1.1264,1.1325,1.1357,1.1387,1.1439,1.1474,1.1505,1.1541,1.1601,1.1633,1.1692,1.174,1.1832,1.1871,1.1927,1.1933,1.1964,1.1942,1.1933,1.1934,1.1931,1.1935,1.1969,1.1969,1.197,1.197,0,1.1292,1.1306,1.1356,1.1411,1.1452,1.1497,1.1542,1.1567,1.1605,1.1645,1.1703,1.1741,1.1814,1.1872,1.1931,1.1962,1.1973,1.1977,1.1987,1.1981,1.1967,1.1975,1.1886,1.1975,1.1974,1.1974,1.1974,1.1973,1.1339,1.1376,1.1425,1.1479,1.1516,1.1557,1.1596,1.1629,1.1678,1.174,1.1755,1.1817,1.1866,1.1945,1.1978,1.2026,1.2021,1.2037,1.2041,1.2045,1.2045,1.1958,1.2037,1.2037,1.2037,1.2037,1.2037,0,1.141,1.1442,1.1491,1.1553,1.1595,1.1599,1.1649,1.1684,1.1737,1.1782,1.1828,1.1895,1.1951,1.1993,1.205,1.2081,1.2087,1.2095,1.2093,1.21,1.2046,1.2031,1.2089,1.2089,1.2089,1.2089,1.2089,1.2089,1.1453,1.1517,1.1536,1.1618,1.1649,1.1709,1.1736,1.1774,1.1809,1.1883,1.1928,1.1955,1.1999,1.2059,1.211,1.2121,1.2141,1.2148,1.216,1.211,1.2104,1.2099,1.2085,1.2152,1.2153,1.221,1.2211,1.2211]}]]